This is the latest recevied weather packets stored in our database for station/object AF9W-5. If no packets are shown the sender has not sent any weather packets the latest 10 day(s).
| Time | Temp. | Humidity | Pressure | Rain* | Wind** | Luminosity | Snow |
|---|---|---|---|---|---|---|---|
| 1777344936 | 20.56° C | 21% | 1012.4 hPa | 0 mm | - | 0 W/m² | - |
| 1777344632 | 20.56° C | 21% | 1012.4 hPa | 0 mm | - | 0 W/m² | - |
| 1777344329 | 20.56° C | 21% | 1012.1 hPa | 0 mm | - | 0 W/m² | - |
| 1777344026 | 20.56° C | 21% | 1012 hPa | 0 mm | - | 0 W/m² | - |
| 1777343723 | 21.11° C | 20% | 1011.9 hPa | 0 mm | - | 0 W/m² | - |
| 1777343421 | 21.11° C | 20% | 1012.1 hPa | 0 mm | - | 0 W/m² | - |
| 1777343119 | 21.11° C | 20% | 1011.8 hPa | 0 mm | - | 0 W/m² | - |
| 1777342815 | 21.67° C | 20% | 1011.7 hPa | 0 mm | - | 0 W/m² | - |
| 1777342209 | 22.22° C | 19% | 1011.7 hPa | 0 mm | - | 4 W/m² | - |
| 1777341905 | 22.22° C | 19% | 1011.2 hPa | 0 mm | - | 4 W/m² | - |
| 1777341601 | 22.22° C | 19% | 1011.5 hPa | 0 mm | - | 7 W/m² | - |
| 1777341297 | 22.78° C | 19% | 1011.3 hPa | 0 mm | - | 13 W/m² | - |
| 1777340994 | 22.78° C | 19% | 1011.2 hPa | 0 mm | - | 13 W/m² | - |
| 1777340692 | 22.78° C | 19% | 1011.2 hPa | 0 mm | - | 14 W/m² | - |
| 1777340390 | 23.33° C | 18% | 1011.1 hPa | 0 mm | - | 3 W/m² | - |
| 1777340087 | 23.33° C | 18% | 1011 hPa | 0 mm | - | 3 W/m² | - |
| 1777339179 | 23.89° C | 17% | 1011 hPa | 0 mm | - | 36 W/m² | - |
| 1777338877 | 23.89° C | 17% | 1011.1 hPa | 0 mm | - | 36 W/m² | - |
| 1777338574 | 24.44° C | 17% | 1011.1 hPa | 0 mm | - | 36 W/m² | - |
| 1777338272 | 24.44° C | 17% | 1011.1 hPa | 0 mm | - | 36 W/m² | - |
| 1777337967 | 24.44° C | 17% | 1010.9 hPa | 0 mm | - | 39 W/m² | - |
| 1777337059 | 24.44° C | 17% | 1010.7 hPa | 0 mm | - | 44 W/m² | - |
| 1777336757 | 24.44° C | 17% | 1011.1 hPa | 0 mm | - | 44 W/m² | - |
| 1777336455 | 24.44° C | 17% | 1010.9 hPa | 0 mm | - | 46 W/m² | - |
| 1777336152 | 25° C | 17% | 1011 hPa | 0 mm | - | 48 W/m² | - |
* Rain latest hour (hover to see other rain measurements)
** Current wind speed in m/s (hover to see current wind gust speed)